Time,TemperatureF,DewpointF,PressureIn,WindDirection,WindDirectionDegrees,WindSpeedMPH,WindSpeedGustMPH,Humidity,HourlyPrecipIn,Conditions,Clouds,dailyrainin,SoftwareType,DateUTC
2013-02-16 00:00:00,35.3,34.8,30.18,ENE,68,0.0,1.0,98,0.00,,SKC,0.00,VWS V14.01,2013-02-16 08:00:00,
2013-02-16 00:15:00,35.1,34.8,30.18,ENE,68,0.0,0.0,99,0.00,,SKC,0.00,VWS V14.01,2013-02-16 08:15:00,
2013-02-16 00:30:00,35.5,35.2,30.18,ENE,68,0.0,0.0,99,0.00,,SKC,0.00,VWS V14.01,2013-02-16 08:30:00,
2013-02-16 00:45:00,35.9,35.7,30.18,ENE,68,0.0,0.0,99,0.00,,SKC,0.00,VWS V14.01,2013-02-16 08:45:00,
2013-02-16 01:00:00,34.6,34.1,30.17,ENE,68,1.0,2.0,98,0.00,,SKC,0.00,VWS V14.01,2013-02-16 09:00:00,
2013-02-16 01:15:00,34.4,34.2,30.17,ENE,68,1.0,2.0,99,0.00,,SKC,0.00,VWS V14.01,2013-02-16 09:15:00,
2013-02-16 01:30:00,35.0,34.8,30.18,ENE,68,0.0,1.0,99,0.00,,SKC,0.00,VWS V14.01,2013-02-16 09:30:00,
2013-02-16 01:45:00,34.3,34.0,30.18,ENE,68,1.0,2.0,99,0.00,,SKC,0.00,VWS V14.01,2013-02-16 09:45:00,
2013-02-16 02:00:00,34.1,33.8,30.17,East,90,1.0,3.0,99,0.00,,SKC,0.00,VWS V14.01,2013-02-16 10:00:00,
2013-02-16 02:15:00,33.7,33.5,30.16,East,90,1.0,2.0,99,0.00,,SKC,0.00,VWS V14.01,2013-02-16 10:15:00,
2013-02-16 02:30:00,33.7,33.5,30.17,East,90,0.0,0.0,99,0.00,,SKC,0.00,VWS V14.01,2013-02-16 10:30:00,
2013-02-16 02:45:00,34.2,34.0,30.17,ENE,68,0.0,1.0,99,0.00,,SKC,0.00,VWS V14.01,2013-02-16 10:45:00,
2013-02-16 03:00:00,34.4,34.2,30.17,ENE,68,0.0,0.0,99,0.00,,SKC,0.00,VWS V14.01,2013-02-16 11:00:00,
2013-02-16 03:15:00,34.1,33.8,30.16,ENE,68,0.0,1.0,99,0.00,,SKC,0.00,VWS V14.01,2013-02-16 11:15:00,
2013-02-16 03:30:00,34.3,34.0,30.15,ENE,68,1.0,3.0,99,0.00,,SKC,0.00,VWS V14.01,2013-02-16 11:30:00,
2013-02-16 03:45:00,34.6,34.3,30.15,ENE,68,0.0,2.0,99,0.00,,SKC,0.00,VWS V14.01,2013-02-16 11:45:00,
2013-02-16 04:00:00,35.1,34.8,30.15,ENE,68,0.0,0.0,99,0.00,,SKC,0.00,VWS V14.01,2013-02-16 12:00:00,
2013-02-16 04:15:00,35.7,35.5,30.15,ENE,68,0.0,1.0,99,0.00,,SKC,0.00,VWS V14.01,2013-02-16 12:15:00,
2013-02-16 04:30:00,36.5,36.5,30.15,ENE,68,0.0,0.0,100,0.00,,SKC,0.00,VWS V14.01,2013-02-16 12:30:00,
2013-02-16 04:45:00,37.2,37.2,30.15,East,90,0.0,2.0,100,0.01,,SKC,0.01,VWS V14.01,2013-02-16 12:45:00,
2013-02-16 05:00:00,37.7,37.5,30.16,East,90,0.0,2.0,99,0.02,,SKC,0.02,VWS V14.01,2013-02-16 13:00:00,
2013-02-16 05:15:00,38.2,37.9,30.16,ENE,68,0.0,1.0,99,0.02,,SKC,0.02,VWS V14.01,2013-02-16 13:15:00,
2013-02-16 05:30:00,38.5,38.2,30.16,ENE,68,0.0,1.0,99,0.02,,SKC,0.02,VWS V14.01,2013-02-16 13:30:00,
2013-02-16 05:45:00,38.2,37.9,30.16,ENE,68,2.0,3.0,99,0.02,,SKC,0.02,VWS V14.01,2013-02-16 13:45:00,
2013-02-16 06:00:00,38.5,38.2,30.17,ENE,68,2.0,3.0,99,0.01,,SKC,0.02,VWS V14.01,2013-02-16 14:00:00,
2013-02-16 06:15:00,39.1,38.8,30.16,ENE,68,1.0,3.0,99,0.00,,SKC,0.02,VWS V14.01,2013-02-16 14:15:00,
2013-02-16 06:30:00,39.9,39.6,30.16,ENE,68,1.0,3.0,99,0.00,,SKC,0.02,VWS V14.01,2013-02-16 14:30:00,
2013-02-16 06:45:00,40.8,40.5,30.16,ENE,68,1.0,4.0,99,0.00,,SKC,0.02,VWS V14.01,2013-02-16 14:45:00,
2013-02-16 07:00:00,41.5,41.2,30.15,ENE,68,1.0,4.0,99,0.00,,SKC,0.02,VWS V14.01,2013-02-16 15:00:00,
2013-02-16 07:45:00,43.5,43.2,30.16,SSE,158,1.0,5.0,99,0.00,,SKC,0.02,VWS V14.01,2013-02-16 15:45:00,
2013-02-16 08:15:00,44.0,43.7,30.16,South,180,1.0,6.0,99,0.02,,SKC,0.04,VWS V14.01,2013-02-16 16:15:00,
2013-02-16 09:15:00,44.3,44.0,30.17,SSW,202,0.0,4.0,99,0.07,,SKC,0.10,VWS V14.01,2013-02-16 17:15:00,
2013-02-16 10:00:00,44.6,44.3,30.17,SSW,202,0.0,1.0,99,0.09,,SKC,0.16,VWS V14.01,2013-02-16 18:00:00,
2013-02-16 10:15:00,44.7,44.4,30.16,SSW,202,0.0,2.0,99,0.12,,SKC,0.20,VWS V14.01,2013-02-16 18:15:00,
2013-02-16 10:30:00,45.1,44.8,30.16,SSW,202,0.0,2.0,99,0.10,,SKC,0.20,VWS V14.01,2013-02-16 18:30:00,
2013-02-16 10:45:00,45.0,44.7,30.16,SSW,202,0.0,1.0,99,0.10,,SKC,0.21,VWS V14.01,2013-02-16 18:45:00,
2013-02-16 11:00:00,44.9,44.6,30.16,SSW,202,0.0,2.0,99,0.06,,SKC,0.21,VWS V14.01,2013-02-16 19:00:00,
2013-02-16 11:15:00,44.9,44.6,30.16,SSW,202,0.0,2.0,99,0.07,,SKC,0.23,VWS V14.01,2013-02-16 19:15:00,
2013-02-16 11:30:00,44.6,44.3,30.16,SSW,202,0.0,2.0,99,0.04,,SKC,0.24,VWS V14.01,2013-02-16 19:30:00,
2013-02-16 11:45:00,44.6,44.3,30.16,SSW,202,0.0,1.0,99,0.07,,SKC,0.27,VWS V14.01,2013-02-16 19:45:00,
2013-02-16 12:00:00,44.7,44.4,30.16,SSW,202,0.0,1.0,99,0.08,,SKC,0.29,VWS V14.01,2013-02-16 20:00:00,
2013-02-16 12:15:00,44.9,44.6,30.15,SW,225,1.0,4.0,99,0.09,,SKC,0.30,VWS V14.01,2013-02-16 20:15:00,
2013-02-16 12:30:00,44.2,43.9,30.15,NW,315,2.0,6.0,99,0.09,,SKC,0.32,VWS V14.01,2013-02-16 20:30:00,
2013-02-16 12:45:00,44.5,44.0,30.15,WNW,292,1.0,4.0,98,0.10,,SKC,0.34,VWS V14.01,2013-02-16 20:45:00,
2013-02-16 13:00:00,44.6,43.8,30.14,WNW,292,0.0,1.0,97,0.10,,SKC,0.37,VWS V14.01,2013-02-16 21:00:00,
2013-02-16 13:15:00,43.8,43.0,30.14,WNW,292,0.0,2.0,97,0.09,,SKC,0.38,VWS V14.01,2013-02-16 21:15:00,
2013-02-16 13:30:00,43.6,42.8,30.14,WNW,292,1.0,3.0,97,0.09,,SKC,0.39,VWS V14.01,2013-02-16 21:30:00,
2013-02-16 13:45:00,43.8,43.3,30.14,WNW,292,0.0,4.0,98,0.09,,SKC,0.41,VWS V14.01,2013-02-16 21:45:00,
2013-02-16 14:00:00,43.8,43.0,30.14,WNW,292,3.0,8.0,97,0.08,,SKC,0.42,VWS V14.01,2013-02-16 22:00:00,
2013-02-16 14:15:00,44.4,43.3,30.13,NNW,338,2.0,7.0,96,0.06,,SKC,0.43,VWS V14.01,2013-02-16 22:15:00,
2013-02-16 14:30:00,45.1,43.8,30.13,NNW,338,2.0,7.0,95,0.05,,SKC,0.43,VWS V14.01,2013-02-16 22:30:00,
2013-02-16 14:45:00,45.4,44.0,30.13,NNE,22,2.0,5.0,95,0.04,,SKC,0.43,VWS V14.01,2013-02-16 22:45:00,
2013-02-16 15:00:00,45.3,44.0,30.13,NNE,22,0.0,3.0,95,0.02,,SKC,0.43,VWS V14.01,2013-02-16 23:00:00,
2013-02-16 15:15:00,45.3,43.7,30.14,NE,45,0.0,4.0,94,0.01,,SKC,0.43,VWS V14.01,2013-02-16 23:15:00,
2013-02-16 15:30:00,45.3,43.7,30.14,NE,45,0.0,1.0,94,0.00,,SKC,0.43,VWS V14.01,2013-02-16 23:30:00,
2013-02-16 15:45:00,45.4,44.0,30.14,NE,45,0.0,1.0,95,0.00,,SKC,0.43,VWS V14.01,2013-02-16 23:45:00,
2013-02-16 16:00:00,45.1,44.0,30.14,NE,45,0.0,1.0,96,0.00,,SKC,0.43,VWS V14.01,2013-02-17 00:00:00,
2013-02-16 16:15:00,44.8,43.2,30.15,NNE,22,2.0,9.0,94,0.01,,SKC,0.44,VWS V14.01,2013-02-17 00:15:00,
2013-02-16 16:30:00,44.5,42.3,30.14,NW,315,3.0,8.0,92,0.01,,SKC,0.44,VWS V14.01,2013-02-17 00:30:00,
2013-02-16 16:45:00,44.1,41.7,30.14,NW,315,4.0,12.0,91,0.01,,SKC,0.44,VWS V14.01,2013-02-17 00:45:00,
2013-02-16 17:00:00,43.9,41.2,30.14,NW,315,4.0,12.0,90,0.01,,SKC,0.44,VWS V14.01,2013-02-17 01:00:00,
2013-02-16 17:15:00,43.7,41.0,30.13,NNW,338,2.0,8.0,90,0.01,,SKC,0.44,VWS V14.01,2013-02-17 01:15:00,
2013-02-16 17:30:00,43.2,41.0,30.13,NNE,22,1.0,6.0,92,0.00,,SKC,0.44,VWS V14.01,2013-02-17 01:30:00,
2013-02-16 17:45:00,43.1,40.7,30.14,NNE,22,1.0,4.0,91,0.00,,SKC,0.44,VWS V14.01,2013-02-17 01:45:00,
2013-02-16 18:15:00,43.5,40.5,30.15,WNW,292,1.0,7.0,89,0.00,,SKC,0.44,VWS V14.01,2013-02-17 02:15:00,
2013-02-16 18:30:00,43.8,40.2,30.15,WNW,292,3.0,9.0,87,0.00,,SKC,0.44,VWS V14.01,2013-02-17 02:30:00,
2013-02-16 18:45:00,43.8,39.9,30.15,NW,315,1.0,5.0,86,0.00,,SKC,0.44,VWS V14.01,2013-02-17 02:45:00,
2013-02-16 19:00:00,43.8,39.9,30.15,NW,315,2.0,7.0,86,0.00,,SKC,0.44,VWS V14.01,2013-02-17 03:00:00,
2013-02-16 19:15:00,43.2,39.9,30.16,NW,315,0.0,2.0,88,0.00,,SKC,0.44,VWS V14.01,2013-02-17 03:15:00,
2013-02-16 19:30:00,43.8,39.6,30.16,WNW,292,2.0,9.0,85,0.00,,SKC,0.44,VWS V14.01,2013-02-17 03:30:00,
2013-02-16 19:45:00,43.9,39.4,30.16,WNW,292,4.0,10.0,84,0.00,,SKC,0.44,VWS V14.01,2013-02-17 03:45:00,
2013-02-16 20:00:00,44.0,39.2,30.16,WNW,292,6.0,17.0,83,0.00,,SKC,0.44,VWS V14.01,2013-02-17 04:00:00,
2013-02-16 20:15:00,44.0,39.2,30.16,WNW,292,5.0,12.0,83,0.00,,SKC,0.44,VWS V14.01,2013-02-17 04:15:00,
2013-02-16 20:30:00,44.0,39.2,30.16,WNW,292,5.0,14.0,83,0.00,,SKC,0.44,VWS V14.01,2013-02-17 04:30:00,
2013-02-16 20:45:00,44.1,39.0,30.16,WNW,292,5.0,10.0,82,0.00,,SKC,0.44,VWS V14.01,2013-02-17 04:45:00,
2013-02-16 21:00:00,44.1,39.0,30.17,WNW,292,4.0,14.0,82,0.00,,SKC,0.44,VWS V14.01,2013-02-17 05:00:00,
2013-02-16 21:15:00,44.2,39.1,30.17,WNW,292,4.0,8.0,82,0.00,,SKC,0.44,VWS V14.01,2013-02-17 05:15:00,
2013-02-16 21:30:00,44.1,39.6,30.17,WNW,292,4.0,9.0,84,0.00,,SKC,0.44,VWS V14.01,2013-02-17 05:30:00,
2013-02-16 21:45:00,44.1,39.6,30.18,WNW,292,5.0,14.0,84,0.00,,SKC,0.44,VWS V14.01,2013-02-17 05:45:00,
2013-02-16 22:00:00,43.8,39.9,30.18,West,270,7.0,15.0,86,0.00,,SKC,0.44,VWS V14.01,2013-02-17 06:00:00,
2013-02-16 22:15:00,42.6,39.9,30.18,SE,135,2.0,6.0,90,0.00,,SKC,0.44,VWS V14.01,2013-02-17 06:15:00,
2013-02-16 22:30:00,42.1,40.0,30.18,SSE,158,1.0,4.0,92,0.01,,SKC,0.45,VWS V14.01,2013-02-17 06:30:00,
2013-02-16 22:45:00,41.8,39.9,30.19,SE,135,0.0,2.0,93,0.04,,SKC,0.48,VWS V14.01,2013-02-17 06:45:00,
2013-02-16 23:00:00,41.5,39.9,30.20,SE,135,0.0,2.0,94,0.09,,SKC,0.53,VWS V14.01,2013-02-17 07:00:00,
2013-02-16 23:15:00,41.1,39.8,30.20,ESE,112,1.0,6.0,95,0.11,,SKC,0.55,VWS V14.01,2013-02-17 07:15:00,
2013-02-16 23:30:00,40.8,39.5,30.20,ESE,112,1.0,5.0,95,0.14,,SKC,0.58,VWS V14.01,2013-02-17 07:30:00,
2013-02-16 23:45:00,40.5,39.5,30.20,South,180,2.0,7.0,96,0.14,,SKC,0.59,VWS V14.01,2013-02-17 07:45:00,